This is the latest recevied weather packets stored in our database for station/object N7AWM. If no packets are shown the sender has not sent any weather packets the latest 10 day(s).
| Time | Temp. | Humidity | Pressure | Rain* | Wind** | Luminosity | Snow |
|---|---|---|---|---|---|---|---|
| 1788593859 | 10.56° C | 78% | 1013.5 hPa | 0 mm | - | - | - |
| 1788593019 | 11.11° C | 77% | 1013.3 hPa | 0 mm | - | - | - |
| 1788592179 | 11.67° C | 73% | 1013.2 hPa | 0 mm | - | - | - |
| 1788591339 | 11.11° C | 74% | 1013.2 hPa | 0 mm | - | - | - |
| 1788590499 | 11.67° C | 74% | 1013.1 hPa | 0 mm | - | - | - |
| 1788589660 | 12.78° C | 66% | 1012.9 hPa | 0 mm | - | - | - |
| 1788588820 | 11.67° C | 71% | 1013 hPa | 0 mm | - | - | - |
| 1788587980 | 11.67° C | 71% | 1013 hPa | 0 mm | - | - | - |
| 1788587140 | 11.11° C | 73% | 1013.1 hPa | 0 mm | - | - | - |
| 1788586300 | 11.67° C | 68% | 1013.1 hPa | 0 mm | - | - | - |
| 1788585460 | 11.67° C | 71% | 1013 hPa | 0 mm | - | - | - |
| 1788584620 | 11.67° C | 69% | 1012.8 hPa | 0 mm | - | - | - |
| 1788583780 | 12.78° C | 66% | 1012.8 hPa | 0 mm | - | - | - |
| 1788582940 | 12.78° C | 66% | 1012.7 hPa | 0 mm | - | - | - |
| 1788582100 | 13.33° C | 66% | 1012.6 hPa | 0 mm | - | - | - |
| 1788581260 | 14.44° C | 60% | 1012.6 hPa | 0 mm | - | - | - |
| 1788580420 | 14.44° C | 58% | 1012.5 hPa | 0 mm | - | - | - |
| 1788579580 | 13.89° C | 61% | 1012.5 hPa | 0 mm | - | - | - |
| 1788578740 | 14.44° C | 61% | 1012.5 hPa | 0 mm | - | - | - |
| 1788577900 | 14.44° C | 59% | 1012.5 hPa | 0 mm | - | - | - |
| 1788577061 | 14.44° C | 62% | 1012.5 hPa | 0 mm | - | - | - |
| 1788576221 | 13.89° C | 63% | 1012.7 hPa | 0 mm | - | - | - |
| 1788575447 | 13.89° C | 62% | 1012.6 hPa | 0 mm | - | - | - |
| 1788575381 | 13.89° C | 62% | 1012.6 hPa | 0 mm | - | - | - |
| 1788574541 | 13.89° C | 61% | 1012.7 hPa | 0 mm | - | - | - |
* Rain latest hour (hover to see other rain measurements)
** Current wind speed in m/s (hover to see current wind gust speed)